Middleton, WI

12:11 AM CDT on March 24, 2017 (GMT -0500)
Middleton

Weather History for KC29 - January, 2012

Change the Weather History Date:

Monday, January 2, 2012

  Actual Average (KMSN) Record (KMSN)
Temperature  
Mean Temperature 21 °F -  
Max Temperature 25 °F 26 °F 53 °F (1897)
Min Temperature 17 °F 9 °F -22 °F (1879)
Degree Days  
Heating Degree Days 44    
Moisture  
Dew Point 9 °F    
Average Humidity 59    
Maximum Humidity 67    
Minimum Humidity 50    
Precipitation  
Precipitation 0.00 in - - ()
Sea Level Pressure  
Sea Level Pressure 30.23 in    
Wind  
Wind Speed 21 mph (NW)    
Max Wind Speed 28 mph    
Max Gust Speed 37 mph    
Visibility 10 miles    
Events      
Averages and records for this station are not official NWS values.
T = Trace of Precipitation, MM = Missing Value Source: NWS Daily Summary

Daily Weather History Graph

Daily Weather History Graph

Search for Another Location

Airport or City:

Trip Planner

Search our weather history database for the weather conditions in past years. The results will help you decide how hot, cold, wet, or windy it might be!

Date:

Astronomy

Jan. 02, 2012 Rise Set
Actual Time 7:29 AM CST 4:34 PM CST
Civil Twilight 6:57 AM CST 5:06 PM CST
Nautical Twilight 6:21 AM CST 5:42 PM CST
Astronomical Twilight 5:47 AM CST 6:16 PM CST
Moon 11:54 AM CST (1/2) 1:18 AM CST (1/2)
Length of Visible Light 10h 08m
Length of Day
9h 04m
Waxing Gibbous, 64% of the Moon is Illuminated
Jan 2
Waxing Gibbous
Jan 9
Full
Jan 16
Last Quarter
Jan 23
New
Jan 30
First Quarter

Hourly Weather History & Observations

Time (CST) Temp. Windchill Dew Point Humidity Pressure Visibility Wind Dir Wind Speed Gust Speed Precip Events Conditions
12:15 AM 25.7 °F 10.2 °F 14.5 °F 63% 30.07 in 10.0 mi NW 25.3 mph 32.2 mph N/A   Overcast
12:35 AM 25.0 °F 9.9 °F 13.6 °F 62% 30.07 in 10.0 mi NW 23.0 mph 29.9 mph N/A   Overcast
1:55 AM 23.2 °F 8.2 °F 12.2 °F 63% 30.10 in 10.0 mi NW 20.7 mph 36.8 mph N/A   Overcast
2:15 AM 22.8 °F 6.7 °F 11.8 °F 63% 30.10 in 10.0 mi NW 24.2 mph 29.9 mph N/A   Overcast
2:35 AM 22.5 °F 6.5 °F 12.0 °F 64% 30.10 in 10.0 mi WNW 23.0 mph 26.5 mph N/A   Overcast
2:55 AM 22.1 °F 8.0 °F 12.6 °F 67% 30.11 in 10.0 mi NW 17.3 mph 29.9 mph N/A   Overcast
3:15 AM 22.1 °F 6.4 °F 11.7 °F 64% 30.11 in 10.0 mi NW 21.9 mph 32.2 mph N/A   Overcast
3:35 AM 22.1 °F 4.8 °F 11.3 °F 63% 30.11 in 10.0 mi NW 27.6 mph 32.2 mph N/A   Overcast
3:55 AM 21.7 °F 5.9 °F 10.4 °F 62% 30.12 in 10.0 mi NW 21.9 mph 31.1 mph N/A   Overcast
4:35 AM 21.2 °F 4.9 °F 9.5 °F 61% 30.12 in 10.0 mi NW 23.0 mph 31.1 mph N/A   Overcast
4:55 AM 21.0 °F 6.2 °F 9.7 °F 62% 30.12 in 10.0 mi NW 18.4 mph 31.1 mph N/A   Overcast
5:15 AM 21.0 °F 6.2 °F 10.4 °F 64% 30.12 in 10.0 mi NW 18.4 mph 27.6 mph N/A   Overcast
5:35 AM 20.8 °F 6.8 °F 10.6 °F 65% 30.13 in 10.0 mi NW 16.1 mph 28.8 mph N/A   Overcast
5:55 AM 20.8 °F 6.4 °F 10.8 °F 65% 30.14 in 10.0 mi NW 17.3 mph 27.6 mph N/A   Overcast
6:15 AM 20.8 °F 3.7 °F 10.8 °F 65% 30.14 in 10.0 mi NW 25.3 mph 32.2 mph N/A   Overcast
6:35 AM 20.8 °F 5.9 °F 9.9 °F 63% 30.15 in 10.0 mi NW 18.4 mph 27.6 mph N/A   Overcast
6:55 AM 20.8 °F 5.1 °F 9.5 °F 62% 30.15 in 10.0 mi NNW 20.7 mph 27.6 mph N/A   Overcast
7:15 AM 20.8 °F 4.7 °F 9.1 °F 61% 30.15 in 10.0 mi NW 21.9 mph 28.8 mph N/A   Overcast
7:35 AM 20.7 °F 4.5 °F 8.4 °F 59% 30.16 in 10.0 mi NW 21.9 mph 31.1 mph N/A   Overcast
7:55 AM 20.3 °F 2.6 °F 7.9 °F 59% 30.17 in 10.0 mi NNW 26.5 mph 32.2 mph N/A   Overcast
8:15 AM 20.5 °F 3.9 °F 8.1 °F 59% 30.18 in 10.0 mi NNW 23.0 mph 27.6 mph N/A   Overcast
8:35 AM 20.7 °F 5.7 °F 8.6 °F 60% 30.19 in 7.0 mi NW 18.4 mph 28.8 mph N/A   Overcast
8:55 AM 20.8 °F 5.5 °F 8.8 °F 60% 30.20 in 10.0 mi NW 19.6 mph 27.6 mph N/A   Overcast
9:15 AM 21.0 °F 6.2 °F 8.2 °F 58% 30.21 in 10.0 mi NW 18.4 mph 29.9 mph N/A   Overcast
9:35 AM 21.0 °F 5.4 °F 7.7 °F 56% 30.21 in 10.0 mi NW 20.7 mph 27.6 mph N/A   Overcast
10:15 AM 21.0 °F 4.6 °F 5.9 °F 52% 30.22 in 10.0 mi NNW 23.0 mph 27.6 mph N/A   Overcast
10:35 AM 21.9 °F 6.9 °F 5.9 °F 50% 30.23 in 10.0 mi NNW 19.6 mph 28.8 mph N/A   Overcast
10:55 AM 21.9 °F 5.1 °F 6.1 °F 51% 30.23 in 10.0 mi NNW 25.3 mph 32.2 mph N/A   Overcast
11:15 AM 21.0 °F 4.6 °F 7.9 °F 57% 30.23 in 10.0 mi NW 23.0 mph 27.6 mph N/A   Overcast
11:35 AM 21.0 °F 6.2 °F 8.1 °F 57% 30.23 in 10.0 mi NNW 18.4 mph - N/A   Overcast
11:55 AM 21.0 °F 6.6 °F 8.8 °F 59% 30.24 in 7.0 mi NNW 17.3 mph 27.6 mph N/A   Overcast
12:15 PM 21.0 °F 5.4 °F 9.5 °F 61% 30.24 in 7.0 mi NNW 20.7 mph 27.6 mph N/A   Overcast
12:35 PM 21.6 °F 6.9 °F 8.8 °F 58% 30.23 in 10.0 mi NNW 18.4 mph 23.0 mph N/A   Overcast
1:15 PM 21.9 °F 7.3 °F 9.0 °F 58% 30.24 in 10.0 mi NNW 18.4 mph 28.8 mph N/A   Overcast
1:35 PM 22.1 °F 5.4 °F 8.4 °F 56% 30.25 in 10.0 mi NNW 25.3 mph 29.9 mph N/A   Overcast
1:55 PM 21.9 °F 7.3 °F 8.4 °F 56% 30.26 in 7.0 mi NNW 18.4 mph 25.3 mph N/A   Overcast
2:15 PM 21.6 °F 6.5 °F 10.2 °F 62% 30.27 in 7.0 mi NNW 19.6 mph 26.5 mph N/A   Overcast
2:35 PM 21.6 °F 6.5 °F 9.3 °F 59% 30.27 in 10.0 mi NNW 19.6 mph 26.5 mph N/A   Overcast
2:55 PM 21.9 °F 8.2 °F 8.6 °F 57% 30.28 in 10.0 mi NNW 16.1 mph 25.3 mph N/A   Overcast
3:15 PM 21.9 °F 6.9 °F 9.1 °F 58% 30.29 in 10.0 mi NNW 19.6 mph 25.3 mph N/A   Overcast
3:35 PM 21.9 °F 6.9 °F 9.0 °F 58% 30.30 in 10.0 mi NNW 19.6 mph 25.3 mph N/A   Overcast
3:55 PM 21.9 °F 8.7 °F 8.4 °F 56% 30.32 in 10.0 mi NNW 15.0 mph 27.6 mph N/A   Overcast
4:15 PM 21.7 °F 6.3 °F 7.0 °F 53% 30.32 in 10.0 mi NW 20.7 mph 28.8 mph N/A   Overcast
4:35 PM 21.4 °F 5.8 °F 7.0 °F 54% 30.33 in 10.0 mi NNW 20.7 mph 27.6 mph N/A   Overcast
4:55 PM 20.8 °F 6.8 °F 6.8 °F 55% 30.34 in 10.0 mi NW 16.1 mph 25.3 mph N/A   Scattered Clouds
5:15 PM 20.3 °F 5.7 °F 6.8 °F 56% 30.35 in 10.0 mi NNW 17.3 mph 21.9 mph N/A   Clear
5:35 PM 19.9 °F 6.2 °F 7.0 °F 57% 30.35 in 10.0 mi NNW 15.0 mph 19.6 mph N/A   Clear
5:55 PM 19.8 °F 7.1 °F 7.2 °F 58% 30.36 in 10.0 mi NNW 12.7 mph - N/A   Clear
6:15 PM 19.4 °F 8.6 °F 7.0 °F 59% 30.37 in 10.0 mi NW 9.2 mph - N/A   Clear
6:35 PM 19.0 °F 7.5 °F 7.5 °F 61% 30.37 in 10.0 mi NW 10.4 mph - N/A   Clear
6:55 PM 19.0 °F 6.1 °F 7.3 °F 60% 30.38 in 10.0 mi NW 12.7 mph - N/A   Scattered Clouds
7:15 PM 19.0 °F 7.5 °F 7.3 °F 60% 30.39 in 10.0 mi NNW 10.4 mph - N/A   Mostly Cloudy
7:35 PM 19.2 °F 4.7 °F 7.2 °F 59% 30.39 in 10.0 mi NW 16.1 mph 19.6 mph N/A   Overcast
7:55 PM 19.2 °F 4.7 °F 6.6 °F 58% 30.40 in 10.0 mi NNW 16.1 mph - N/A   Overcast
8:35 PM 17.6 °F 5.7 °F 5.7 °F 60% 30.40 in 10.0 mi NW 10.4 mph 18.4 mph N/A   Clear
8:55 PM 17.1 °F 3.6 °F 5.4 °F 60% 30.40 in 10.0 mi NNW 12.7 mph 17.3 mph N/A   Clear
9:15 PM 16.7 °F 3.2 °F 5.9 °F 63% 30.40 in 10.0 mi NNW 12.7 mph - N/A   Clear
9:35 PM 16.7 °F 2.6 °F 5.4 °F 61% 30.40 in 10.0 mi NNW 13.8 mph 19.6 mph N/A   Clear
9:55 PM 16.2 °F 3.2 °F 5.2 °F 62% 30.41 in 10.0 mi NW 11.5 mph 18.4 mph N/A   Clear
10:15 PM 16.0 °F 1.7 °F 5.0 °F 62% 30.40 in 10.0 mi NNW 13.8 mph 17.3 mph N/A   Clear
10:35 PM 15.8 °F 3.4 °F 5.0 °F 62% 30.41 in 10.0 mi NNW 10.4 mph - N/A   Clear
10:55 PM 15.4 °F 2.3 °F 4.6 °F 62% 30.42 in 10.0 mi NW 11.5 mph - N/A   Clear
11:15 PM 15.4 °F 3.0 °F 4.3 °F 61% 30.42 in 10.0 mi NW 10.4 mph - N/A   Clear
11:35 PM 15.1 °F 4.2 °F 4.3 °F 62% 30.42 in 10.0 mi NNW 8.1 mph - N/A   Clear
11:55 PM 14.7 °F 2.1 °F 4.3 °F 63% 30.42 in 10.0 mi NW 10.4 mph - N/A   Clear